Regional Weather Roundup
Issued by NWS

Home | Current Version | Previous Version | Text Only | Print | Product List | Glossary Off
Versions: 1 2 3 4 5 6 7 8 9 10 11 12 13 14 15 16 17 18 19 20 21 22 23 24 25 26 27 28 29 30 31 32 33 34 35 36 37 38 39 40 41 42 43 44 45 46 47 48 49

000
ASUS45 KCYS 021110
RWRWY

WYOMING REGIONAL WEATHER ROUNDUP
NATIONAL WEATHER SERVICE CHEYENNE WY
500 AM MDT THU JUL 02 2015

NOTE:  "FAIR" INDICATES FEW OR NO CLOUDS BELOW 12,000 FEET
WITH NO SIGNIFICANT WEATHER AND/OR OBSTRUCTIONS TO VISIBILITY.

WYZ001-021200-
YELLOWSTONE NATIONAL PARK

CITY           SKY/WX    TMP DP  RH WIND       PRES   REMARKS
LK YELLOWSTONE   N/A     44  39  82 CALM      30.37S
W YELLOWSTONE  NOT AVBL

$$
WYZ002>013-054>058-071-098>099-021200-
NORTHERN WYOMING

CITY           SKY/WX    TMP DP  RH WIND       PRES   REMARKS
JACKSON        FAIR      52  45  76 N3        30.25R
CODY           FAIR      63  45  51 W6        30.22R
GREYBULL       MOCLDY    68  52  56 NW13      30.11R
WORLAND        FAIR      63  55  75 SW7       30.15R
SHERIDAN       FAIR      56  53  90 NW6       30.16R
BUFFALO        FAIR      58  53  84 W5        30.20S
GILLETTE       FAIR      59  55  87 CALM      30.16R
NEWCASTLE      NOT AVBL

$$
WYZ014>020-022>026-101>103-021200-
CENTRAL WYOMING

CITY           SKY/WX    TMP DP  RH WIND       PRES   REMARKS
BIG PINEY      FAIR      50  38  63 N5        30.28R
PINEDALE       FAIR      46  41  81 W7        30.29R
DUBOIS         NOT AVBL
LANDER         FAIR      62  54  74 CALM      30.24R
RIVERTON       FAIR      62  54  74 SE9       30.22R
CASPER         FAIR      56  54  93 NW8       30.22R
DOUGLAS        FAIR      60  59  96 NE5       30.19S

$$
WYZ021-027>030-104>119-021200-
SOUTHERN WYOMING

CITY           SKY/WX    TMP DP  RH WIND       PRES   REMARKS
EVANSTON       FAIR      61  42  49 SE5       30.29R
FORT BRIDGER   SUNNY     63  39  42 W8        30.30R
ROCK SPRINGS   FAIR      62  49  62 NE8       30.25R
RAWLINS        FAIR      56  53  90 NE8       30.27R
LARAMIE        CLOUDY    54  53  97 E7        30.33R
CHEYENNE       CLOUDY    54  53  97 NE15      30.27R
TORRINGTON     LGT RAIN  59  57  93 W9        30.15R

$$


USA.gov is the U.S. government's official web portal to all federal, state and local government web resources and services.